TimeCST,TemperatureF,Dew PointF,Humidity,Sea Level PressureIn,VisibilityMPH,Wind Direction,Wind SpeedMPH,Gust SpeedMPH,PrecipitationIn,Events,Conditions,WindDirDegrees,DateUTC
12:15 AM,60.8,51.8,72,30.12,10.0,North,12.7,19.6,N/A,,Overcast,360,2013-01-02 06:15:00
12:35 AM,60.8,51.8,72,30.11,10.0,North,12.7,21.9,N/A,,Overcast,360,2013-01-02 06:35:00
12:55 AM,60.8,51.8,72,30.11,10.0,North,11.5,18.4,N/A,,Overcast,360,2013-01-02 06:55:00
1:15 AM,60.8,51.8,72,30.12,10.0,North,9.2,-,N/A,,Overcast,350,2013-01-02 07:15:00
1:35 AM,59.0,51.8,77,30.12,8.0,North,10.4,16.1,N/A,,Overcast,350,2013-01-02 07:35:00
1:55 AM,59.0,51.8,77,30.12,10.0,North,11.5,-,N/A,,Mostly Cloudy,360,2013-01-02 07:55:00
2:15 AM,59.0,51.8,77,30.13,8.0,North,10.4,19.6,N/A,,Mostly Cloudy,350,2013-01-02 08:15:00
2:35 AM,59.0,51.8,77,30.13,8.0,North,10.4,19.6,N/A,,Mostly Cloudy,360,2013-01-02 08:35:00
3:15 AM,59.0,51.8,77,30.13,9.0,NNW,10.4,17.3,N/A,,Mostly Cloudy,340,2013-01-02 09:15:00
3:35 AM,57.2,51.8,82,30.14,10.0,North,8.1,19.6,N/A,,Mostly Cloudy,350,2013-01-02 09:35:00
3:55 AM,57.2,51.8,82,30.14,7.0,NNW,10.4,17.3,N/A,,Mostly Cloudy,340,2013-01-02 09:55:00
4:15 AM,57.2,51.8,82,30.13,8.0,NNW,11.5,18.4,N/A,,Mostly Cloudy,340,2013-01-02 10:15:00
4:35 AM,57.2,51.8,82,30.14,8.0,NNW,11.5,17.3,N/A,,Mostly Cloudy,340,2013-01-02 10:35:00
4:55 AM,57.2,50.0,77,30.15,9.0,NNW,10.4,-,N/A,,Scattered Clouds,340,2013-01-02 10:55:00
5:15 AM,57.2,50.0,77,30.14,8.0,NNW,12.7,-,N/A,,Scattered Clouds,340,2013-01-02 11:15:00
5:35 AM,57.2,50.0,77,30.15,9.0,NNW,12.7,-,N/A,,Mostly Cloudy,340,2013-01-02 11:35:00
5:55 AM,57.2,50.0,77,30.15,8.0,NNW,13.8,21.9,N/A,,Mostly Cloudy,330,2013-01-02 11:55:00
6:15 AM,55.4,50.0,82,30.16,8.0,NNW,13.8,-,N/A,,Partly Cloudy,340,2013-01-02 12:15:00
6:35 AM,55.4,50.0,82,30.18,5.0,NNW,10.4,19.6,N/A,,Haze,340,2013-01-02 12:35:00
6:55 AM,55.4,50.0,82,30.19,7.0,NNW,10.4,18.4,N/A,,Partly Cloudy,340,2013-01-02 12:55:00
7:15 AM,55.4,48.2,77,30.18,8.0,NNW,11.5,-,N/A,,Partly Cloudy,340,2013-01-02 13:15:00
7:35 AM,55.4,48.2,77,30.19,9.0,North,12.7,20.7,N/A,,Mostly Cloudy,360,2013-01-02 13:35:00
7:55 AM,55.4,48.2,77,30.19,8.0,North,10.4,18.4,N/A,,Mostly Cloudy,350,2013-01-02 13:55:00
8:15 AM,55.4,48.2,77,30.21,8.0,North,12.7,18.4,N/A,,Mostly Cloudy,350,2013-01-02 14:15:00
8:35 AM,55.4,48.2,77,30.22,5.0,North,12.7,19.6,N/A,,Haze,360,2013-01-02 14:35:00
8:55 AM,55.4,48.2,77,30.22,-9999.0,North,11.5,19.6,N/A,,Mostly Cloudy,350,2013-01-02 14:55:00
9:15 AM,55.4,48.2,77,30.24,4.0,NNW,11.5,19.6,N/A,,Haze,340,2013-01-02 15:15:00
9:35 AM,55.4,48.2,77,30.24,3.0,North,11.5,19.6,N/A,,Haze,360,2013-01-02 15:35:00
9:55 AM,53.6,48.2,82,30.26,5.0,NNW,10.4,17.3,N/A,,Haze,340,2013-01-02 15:55:00
10:15 AM,55.4,50.0,82,30.26,4.0,North,9.2,18.4,N/A,,Haze,350,2013-01-02 16:15:00
10:35 AM,53.6,50.0,88,30.26,5.0,NNW,11.5,-,N/A,,Haze,340,2013-01-02 16:35:00
10:55 AM,53.6,48.2,82,30.26,5.0,NNW,11.5,17.3,N/A,,Haze,340,2013-01-02 16:55:00
11:15 AM,53.6,48.2,82,30.25,5.0,North,10.4,16.1,N/A,,Haze,350,2013-01-02 17:15:00
11:35 AM,53.6,48.2,82,30.24,5.0,North,10.4,16.1,N/A,,Haze,350,2013-01-02 17:35:00
11:55 AM,53.6,48.2,82,30.23,5.0,NNW,10.4,-,N/A,,Haze,340,2013-01-02 17:55:00
12:15 PM,53.6,48.2,82,30.22,9.0,NNW,9.2,15.0,N/A,,Mostly Cloudy,340,2013-01-02 18:15:00
12:35 PM,55.4,48.2,77,30.20,6.0,NNW,10.4,17.3,N/A,,Haze,340,2013-01-02 18:35:00
12:55 PM,53.6,48.2,82,30.18,10.0,NNW,10.4,16.1,N/A,,Overcast,340,2013-01-02 18:55:00
1:15 PM,55.4,48.2,77,30.17,10.0,NNW,12.7,-,N/A,,Mostly Cloudy,340,2013-01-02 19:15:00
1:35 PM,55.4,48.2,77,30.15,9.0,NNW,13.8,-,N/A,,Overcast,340,2013-01-02 19:35:00
1:55 PM,55.4,48.2,77,30.15,-9999.0,NNW,17.3,-,N/A,,Overcast,330,2013-01-02 19:55:00
2:15 PM,55.4,48.2,77,30.16,10.0,NNW,15.0,-,N/A,,Overcast,330,2013-01-02 20:15:00
2:35 PM,53.6,48.2,82,30.16,10.0,NNW,16.1,-,N/A,,Overcast,340,2013-01-02 20:35:00
2:55 PM,53.6,48.2,82,30.17,7.0,NNW,15.0,-,N/A,,Mostly Cloudy,340,2013-01-02 20:55:00
3:15 PM,53.6,48.2,82,30.16,7.0,NNW,13.8,21.9,N/A,,Mostly Cloudy,340,2013-01-02 21:15:00
3:35 PM,53.6,48.2,82,30.16,6.0,NNW,17.3,-,N/A,,Haze,330,2013-01-02 21:35:00
3:55 PM,51.8,48.2,88,30.16,8.0,NNW,11.5,19.6,N/A,,Mostly Cloudy,340,2013-01-02 21:55:00
4:15 PM,53.6,46.4,77,30.16,9.0,NNW,11.5,19.6,N/A,,Overcast,340,2013-01-02 22:15:00
4:35 PM,53.6,46.4,77,30.17,8.0,NNW,10.4,17.3,N/A,,Overcast,340,2013-01-02 22:35:00
4:55 PM,53.6,46.4,77,30.18,7.0,NNW,11.5,17.3,N/A,,Overcast,340,2013-01-02 22:55:00
5:15 PM,53.6,46.4,77,30.19,6.0,NNW,11.5,-,N/A,,Haze,340,2013-01-02 23:15:00
5:35 PM,51.8,48.2,88,30.20,5.0,NNW,15.0,-,N/A,,Haze,330,2013-01-02 23:35:00
5:55 PM,53.6,48.2,82,30.20,6.0,NNW,15.0,20.7,N/A,,Haze,330,2013-01-02 23:55:00
6:15 PM,51.8,48.2,88,30.20,8.0,NNW,12.7,20.7,N/A,,Partly Cloudy,340,2013-01-03 00:15:00
6:35 PM,53.6,48.2,82,30.20,10.0,NNW,13.8,20.7,N/A,,Clear,340,2013-01-03 00:35:00
6:55 PM,51.8,46.4,82,30.21,10.0,NNW,13.8,20.7,N/A,,Partly Cloudy,340,2013-01-03 00:55:00
7:15 PM,51.8,48.2,88,30.22,9.0,NNW,12.7,-,N/A,,Partly Cloudy,340,2013-01-03 01:15:00
7:35 PM,51.8,48.2,88,30.23,6.0,NNW,16.1,-,N/A,,Haze,330,2013-01-03 01:35:00
7:55 PM,51.8,48.2,88,30.23,7.0,NNW,12.7,18.4,N/A,,Partly Cloudy,340,2013-01-03 01:55:00
8:15 PM,51.8,48.2,88,30.23,7.0,NNW,10.4,17.3,N/A,,Clear,340,2013-01-03 02:15:00
8:35 PM,51.8,48.2,88,30.23,9.0,North,11.5,18.4,N/A,,Partly Cloudy,350,2013-01-03 02:35:00
8:55 PM,51.8,48.2,88,30.22,6.0,North,10.4,18.4,N/A,,Haze,350,2013-01-03 02:55:00
9:15 PM,51.8,46.4,82,30.22,8.0,North,12.7,-,N/A,,Clear,350,2013-01-03 03:15:00
9:35 PM,51.8,46.4,82,30.24,8.0,NNW,10.4,16.1,N/A,,Clear,340,2013-01-03 03:35:00
9:55 PM,53.6,48.2,82,30.24,10.0,NNW,10.4,17.3,N/A,,Clear,340,2013-01-03 03:55:00
10:15 PM,53.6,48.2,82,30.23,10.0,NNW,13.8,19.6,N/A,,Partly Cloudy,340,2013-01-03 04:15:00
10:35 PM,53.6,48.2,82,30.23,10.0,North,11.5,18.4,N/A,,Scattered Clouds,350,2013-01-03 04:35:00
10:55 PM,53.6,46.4,77,30.25,10.0,North,11.5,18.4,N/A,,Mostly Cloudy,350,2013-01-03 04:55:00
11:15 PM,53.6,46.4,77,30.25,10.0,NNW,11.5,-,N/A,,Mostly Cloudy,340,2013-01-03 05:15:00
11:35 PM,53.6,46.4,77,30.25,10.0,NNW,10.4,16.1,N/A,,Overcast,340,2013-01-03 05:35:00
11:55 PM,53.6,46.4,77,30.24,10.0,NNW,9.2,16.1,N/A,,Overcast,340,2013-01-03 05:55:00